Вернуться в каталог

COSMOS 1249 COOLANT

LostLEO
NORAD 26505·DEBRIS·🇷🇺 Russia

Запущен Mar 5, 1981 с Baikonur Cosmodrome

Loading…

Ближайшие Пролёты (ближайшие 24 часа)

TLE

УстаревшееSource: Space-Track

Эпоха: Oct 28, 2022, 01:23 UTC

1 26505U 81021G   22301.05782157  .00000177  00000-0  20724-3 0  9996
2 26505  64.9650 182.8596 0060977 301.5477  57.9641 13.91672093155661

Отслеживайте COSMOS 1249 COOLANT в реальном времени с AllMySat

Download on the App Store